Location: Fort Wayne
(41.1310°N, 85.1290°W)
Time: 02:19:24
(UTC-05:00)

BREEZE-M DEB (TANK) - Visible Passes

Search period start: 16 December 2017 00:00
Search period end: 26 December 2017 00:00
Orbit: 282 x 13214 km, 49.6° (Epoch: 14 December)

Date Brightness Start Highest point End Pass type
(mag) Time Alt. Az. Time Alt. Az. Time Alt. Az.
16 Dec 8.2 01:01:56 10° S 02:37:35 52° ESE 03:07:04 10° ENE visible
16 Dec 6.4 06:04:08 10° WSW 07:16:23 71° NNW 07:27:57 10° ENE visible
16 Dec 8.8 22:56:13 10° ESE 23:07:42 11° E 23:17:29 10° E visible
17 Dec 7.8 01:59:46 10° SSW 03:41:57 68° SE 04:07:02 10° ENE visible
17 Dec 5.9 07:28:45 10° W 08:18:06 63° N 08:26:48 10° ENE visible
17 Dec 8.6 23:05:15 10° SE 00:06:59 24° ESE 00:38:03 10° ENE visible
18 Dec 7.4 03:04:05 10° SSW 04:46:06 84° SE 05:06:22 10° ENE visible
18 Dec 8.4 23:43:49 10° SSE 01:08:38 39° ESE 01:42:05 10° ENE visible
19 Dec 6.9 04:15:41 10° SW 05:49:32 82° NNW 06:05:24 10° ENE visible
20 Dec 8.2 00:34:15 10° S 02:12:07 54° ESE 02:43:11 10° ENE visible
20 Dec 6.5 05:35:54 10° WSW 06:52:09 71° NNW 07:04:18 10° ENE visible
20 Dec 8.8 22:22:15 10° ESE 22:42:18 12° E 22:57:54 10° E visible
21 Dec 7.8 01:32:05 10° SSW 03:16:34 70° SE 03:43:06 10° ENE visible
21 Dec 6.0 07:01:14 10° W 07:54:02 64° N 08:03:07 10° ENE visible
21 Dec 8.5 22:36:17 10° SE 23:41:18 25° ESE 00:14:09 10° ENE visible
22 Dec 7.4 02:36:08 10° SSW 04:20:58 85° SE 04:42:25 10° ENE visible
22 Dec 8.3 23:15:41 10° SSE 00:42:44 40° ESE 01:17:55 10° ENE visible
23 Dec 7.0 03:47:17 10° SW 05:24:41 81° NNW 05:41:26 10° ENE visible
24 Dec 8.2 00:06:26 10° S 01:46:08 55° ESE 02:18:57 10° ENE visible
24 Dec 6.6 05:07:12 10° WSW 06:27:34 71° NNW 06:40:19 10° ENE visible
24 Dec 8.8 21:50:21 10° ESE 22:16:29 13° E 22:35:47 10° ENE visible
25 Dec 7.9 01:04:15 10° SSW 02:50:41 71° SE 03:18:49 10° ENE visible
25 Dec 6.1 06:33:03 10° W 07:29:36 65° N 07:39:06 10° ENE visible
25 Dec 8.5 22:07:20 10° SE 23:15:10 26° ESE 23:49:48 10° ENE visible
